Regional Weather Roundup
Issued by NWS

Home | Current Version | Previous Version | Graphics & Text | Print | Product List | Glossary On
Versions: 1 2 3 4 5 6 7 8 9 10 11 12 13 14 15 16 17 18 19 20 21 22 23 24 25 26 27 28 29 30 31 32 33 34 35 36 37 38 39 40 41 42 43 44 45 46 47 48 49 50
000
ASUS45 KBOU 220010
RWRCO

WEATHER ROUNDUP FOR COLORADO
NATIONAL WEATHER SERVICE DENVER/BOULDER CO
600 PM MDT SAT APR 21 2018

NOTE: "FAIR" INDICATES FEW OR NO CLOUDS BELOW 12000 FEET WITH NO
SIGNIFICANT WEATHER AND/OR OBSTRUCTIONS TO VISIBILITY.

COZ001>005-013-030-031-220100-
...NORTHWEST COLORADO...

CITY           SKY/WX    TMP DP  RH WIND       PRES   REMARKS
CRAIG          PTSUNNY   55  37  50 S5        30.16S
HAYDEN         FAIR      51  35  54 SE6       30.19S
MEEKER         FAIR      54  35  48 E7        30.18S
RANGELY        FAIR      63  36  36 SW5       30.11S
RABBIT EARS PA FOG      N/A N/A N/A W9        30.26R VSB<1/4
STEAMBOAT SPGS FAIR      44  34  68 CALM      30.20S
WALDEN         PTSUNNY   39  30  70 S9        30.20S
$$

COZ006>008-011-220100-
...WEST CENTRAL VALLEYS...

CITY           SKY/WX    TMP DP  RH WIND       PRES   REMARKS
GRAND JUNCTION FAIR      63  33  32 S13       30.13S
MONTROSE       FAIR      56  32  40 VRB5      30.20S
EAGLE          CLOUDY    48  35  60 E6        30.24R
RIFLE          FAIR      55  36  48 E5        30.18F
DELTA          FAIR      62  34  35 E6        30.18R
NUCLA          FAIR      61  25  25 NE16      30.19S
$$

COZ017>023-064>068-220100-
...SOUTHWEST COLORADO...

CITY           SKY/WX    TMP DP  RH WIND       PRES   REMARKS
DURANGO        FAIR      63  25  23 S8        30.06S
CORTEZ         FAIR      63  28  26 N16G26    30.13R
PAGOSA SPRINGS PTSUNNY   58  19  22 SE3       30.13R
TELLURIDE      FAIR      44  27  51 N3        30.28R
WOLF CREEK PAS FAIR      32  19  59 NW7       30.36R WCI  26
$$

COZ009-010-012-014-032>034-037-058>063-220100-
...CENTRAL COLORADO...

CITY           SKY/WX    TMP DP  RH WIND       PRES   REMARKS
ASPEN          CLOUDY    41  33  73 NE3       30.25R
BUENA VISTA    FAIR      47  26  43 NW18G25   30.17R
COPPER MTN     NOT AVBL
BERTHOUD PASS  CLOUDY    21  10  63 NW40G46   30.20F WCI   1
COTTONWOOD PAS PTSUNNY   45  32  61 N5        30.22R
GUNNISON       FAIR      48  29  47 VRB6      30.20R
GRANBY         CLOUDY    36  32  85 CALM      30.22R
KREMMLING      CLOUDY    46  32  57 CALM      30.22S
LEADVILLE      CLOUDY    32  26  78 NW10G22   30.24R WCI  24
MONARCH PASS     N/A     27  27 100 W25G33    30.38R WCI  11
SALIDA         CLOUDY    50  31  47 NE6       30.22R
SUNLIGHT       FAIR     N/A N/A N/A CALM      30.35R
WILKERSON PASS PTSUNNY   30  27  86 W8        30.24R WCI  23
$$

COZ069>075-220100-
...SAN LUIS VALLEY/SANGRE DE CRISTO MOUNTAINS...

CITY           SKY/WX    TMP DP  RH WIND       PRES   REMARKS
ALAMOSA        FAIR      56  22  26 N22G30    30.11R
DEL NORTE      FAIR      53  22  29 N15G22    30.16R
LA VETA PASS   FOG       30  28  93 NW6       30.31R VSB<1/4 WCI  24
SAGUACHE       NOT AVBL
$$

COZ035-036-038>040-220100-
...NORTHERN COLORADO FRONT RANGE...

CITY           SKY/WX    TMP DP  RH WIND       PRES   REMARKS
DENVER INTL AP CLOUDY    38  34  85 SW6       30.18S
AURORA         DRIZZLE   37  35  93 S3        30.19S
FRONT RANGE AP CLOUDY    41  37  87 SW5       30.19S
ERIE MUNI ARPT CLOUDY    41  35  79 S3        30.24S
BOULDER MUN AP CLOUDY    41  36  81 SE6       30.18S
CENTENNIAL     DRIZZLE   37  34  89 CALM      30.19R
BROOMFIELD     CLOUDY    39  36  87 SE3       30.19S
FORT COLLINS   LGT RAIN  41  37  86 S8        30.18S
LONGMONT       NOT AVBL
$$

COZ041-046-047-076>085-087-088-220100-
...PIKES PEAK/PALMER DIVIDE AND SOUTHERN FOOTHILLS...

CITY           SKY/WX    TMP DP  RH WIND       PRES   REMARKS
COLO. SPRINGS  CLOUDY    41  31  67 NE8       30.19R
A. F. ACADEMY  PTSUNNY   39  29  69 N8        30.17S
SCHRIEVER AFB  NOT AVBL
CHEYENNE MTN   PTSUNNY   36  31  82 NW3       30.14R
ELLICOTT         N/A    N/A N/A N/A NE10      30.18R
FALCON         CLOUDY    37  30  77 N6        30.19S
FORT CARSON    CLOUDY    42  33  70 CALM      30.18R
LIMON          CLOUDY    39  33  79 N7        30.19R
MONUMENT HILL  FLURRIES  32  30  93 N5        30.20S WCI  27
CANON CITY     CLOUDY    45  36  70 CALM      30.18S
WALSENBURG     NOT AVBL
TRINIDAD       CLOUDY    43  38  82 N10       30.19R
$$

COZ042>045-048>051-090-091-220100-
...NORTHEAST COLORADO...

CITY           SKY/WX    TMP DP  RH WIND       PRES   REMARKS
GREELEY ARPT   LGT RAIN  45  36  70 S5        30.19S
AKRON          CLOUDY    40  36  86 CALM      30.18S
BURLINGTON     CLOUDY    41  37  86 N9        30.20R
WRAY           CLOUDY    41  37  87 CALM      30.21S
YUMA           CLOUDY    41  34  75 CALM      30.19S
STERLING       NOT AVBL
HOLYOKE        CLOUDY    43  37  81 NE3       30.20F
FORT MORGAN    FAIR      43  33  66 SE3       30.18F
$$

COZ086-089-092>099-220100-
...SOUTHEAST COLORADO...

CITY           SKY/WX    TMP DP  RH WIND       PRES   REMARKS
PUEBLO         CLOUDY    49  33  54 N6        30.18R
LA JUNTA       LGT RAIN  47  39  74 N6        30.18R
LAMAR          CLOUDY    46  37  71 NE9       30.17R
SPRINGFIELD      N/A     44  37  76 NE15      30.16R
$$




USA.gov is the U.S. government's official web portal to all federal, state and local government web resources and services.